Vorticity
nan nan nan nan nan nan nan nan nan nan nan nan nan nan nan nan nan nan nan nan nan nan nan nan nan nan nan nan nan nan nan nan nan nan nan nan nan nan nan nan nan nan nan nan nan nan nan
nan 7 6 7 6 7 7 7 7 7 7 7 7 7 7 7 7 7 7 7 7 8 8 9 8 17 17 11 4 10 8 5 7 8 6 6 8 5 7 7 5 9 9 10 9 10 nan
nan 6 7 6 6 6 6 6 6 6 7 7 7 7 7 7 7 7 7 7 8 9 11 12 12 16 9 9 10 9 7 6 7 9 7 4 8 10 7 5 7 12 9 4 5 4 nan
nan 6 6 6 6 6 6 6 6 7 7 6 7 7 7 7 7 8 8 8 9 13 14 12 10 9 11 6 7 11 8 7 7 6 5 6 6 11 9 8 9 7 10 5 6 9 nan
nan 7 7 6 6 6 6 6 7 7 7 7 6 7 7 8 8 9 9 14 19 13 12 12 9 9 11 9 11 8 8 8 8 7 5 5 6 10 11 7 8 5 8 8 5 8 nan
nan 7 7 7 6 6 6 6 7 7 7 7 7 7 7 7 8 9 18 22 15 15 11 7 12 13 9 6 8 8 10 9 10 7 4 7 8 7 13 10 4 8 7 6 7 11 nan
nan 7 6 6 8 7 7 6 6 7 7 7 8 8 7 7 7 13 24 20 12 11 2 3 7 10 10 7 12 10 7 7 6 6 5 7 8 9 5 10 8 8 8 9 8 8 nan
nan 8 9 7 6 10 8 7 6 7 7 8 8 7 7 7 10 20 18 10 7 10 14 12 3 6 5 10 14 10 7 7 5 5 7 4 13 9 4 5 4 11 9 11 6 4 nan
nan 7 7 7 8 10 8 7 7 7 7 7 8 8 8 6 21 21 14 10 4 11 11 16 10 10 10 8 12 13 4 6 8 8 4 -1 13 10 7 6 3 5 7 4 3 7 nan
nan 7 7 7 11 10 6 7 8 8 7 7 7 7 5 19 24 13 14 -2 8 13 14 15 10 13 8 7 14 10 14 7 7 11 7 14 2 1 4 4 11 9 1 6 12 10 nan
nan 9 9 7 8 8 10 9 8 7 7 7 8 8 10 20 18 9 2 7 14 11 11 9 8 9 17 7 10 16 11 9 7 7 7 11 7 4 3 8 7 5 4 10 16 10 nan
nan 8 9 8 7 7 8 8 8 7 7 8 8 5 18 21 7 6 4 14 13 7 14 7 10 11 8 7 0 12 8 3 12 11 4 1 9 17 12 7 6 2 9 7 5 10 nan
nan 8 9 8 8 9 8 6 7 7 8 9 7 9 18 9 9 8 14 15 7 8 12 13 9 13 8 8 8 7 10 5 4 8 8 8 2 6 15 3 5 6 4 6 9 5 nan
nan 9 9 9 8 9 9 7 8 8 9 10 6 24 19 8 4 10 15 9 6 12 8 8 17 14 11 7 5 9 8 7 6 1 7 13 9 10 3 5 9 12 2 6 7 9 nan
nan 9 9 9 9 8 9 10 9 9 9 10 23 23 9 13 9 11 13 6 8 6 12 10 10 9 10 3 9 14 11 10 10 5 4 11 2 11 16 12 10 6 7 6 9 8 nan
nan 8 9 11 11 9 9 9 9 9 8 18 25 11 12 10 14 11 10 7 4 7 9 13 10 11 11 8 6 10 11 15 10 8 3 6 12 12 9 7 7 6 14 11 5 6 nan
nan 8 8 12 12 9 9 9 9 8 10 21 17 7 11 13 10 11 10 8 6 6 9 12 12 10 13 17 11 7 -3 10 19 10 7 3 10 9 9 17 7 8 3 -4 6 12 nan
nan 11 11 13 10 9 9 10 10 9 19 18 13 13 10 12 9 10 14 4 4 13 6 6 8 12 19 15 14 8 7 10 15 12 9 3 8 9 7 3 15 17 10 2 6 3 nan
nan 11 12 11 9 8 9 11 10 11 16 17 11 13 11 10 14 5 12 10 5 10 5 6 8 10 15 14 15 13 10 13 13 10 13 6 2 9 11 2 8 11 8 10 9 7 nan
nan 9 12 10 9 9 10 10 11 12 15 14 13 11 8 8 6 18 14 8 6 5 5 6 7 10 11 10 14 15 9 13 13 10 10 9 5 7 6 11 12 10 7 9 6 7 nan
nan 10 11 10 9 10 10 11 12 12 16 15 10 3 13 19 8 11 11 12 11 4 7 7 6 7 7 8 9 13 11 7 11 14 10 8 10 8 2 9 12 18 15 12 7 1 nan
nan 10 10 11 10 9 10 12 11 13 14 11 9 12 7 13 21 13 11 8 11 8 10 4 8 8 7 3 6 11 10 4 10 9 12 8 9 13 12 5 7 8 12 15 13 9 nan
nan 10 9 11 11 9 10 11 10 12 14 13 14 10 9 16 15 12 7 11 11 12 6 10 13 9 13 9 4 3 5 7 10 17 15 7 9 14 13 14 8 15 14 9 11 14 nan
nan 10 11 10 9 9 9 10 11 11 13 12 9 11 14 8 13 15 10 10 12 9 6 14 12 8 7 12 17 15 8 8 9 9 11 15 11 8 15 13 9 9 16 17 14 12 nan
nan 9 9 10 12 10 8 10 11 13 12 7 10 12 11 11 15 17 14 12 8 10 13 7 11 9 9 11 14 13 13 15 13 13 10 12 12 6 15 2 7 11 18 16 12 5 nan
nan 10 9 10 11 12 12 11 10 12 13 8 10 11 8 15 12 9 18 13 15 12 10 11 11 12 8 13 15 14 8 10 9 5 12 14 11 12 8 10 9 11 9 7 14 16 nan
nan 10 9 11 10 12 12 12 10 11 12 11 13 12 9 11 8 10 11 9 13 12 9 17 12 13 13 11 11 14 13 13 7 6 9 11 12 13 9 8 6 8 7 14 14 17 nan
nan 10 8 9 10 11 11 12 12 12 14 11 12 12 8 10 9 11 7 8 7 7 8 13 14 12 15 12 13 9 15 16 5 10 17 11 9 14 12 16 1 8 15 11 21 22 nan
nan nan nan nan nan nan nan nan nan nan nan nan nan nan nan nan nan nan nan nan nan nan nan nan nan nan nan nan nan nan nan nan nan nan nan nan nan nan nan nan nan nan nan nan nan nan nan
CAPE
13 9 8 11 7 8 6 6 6 4 6 4 3 2 1 0 0 0 0 0 0 0 0 0 0 0 0 0 0 0 754 487 0 0 515 373 351 457 540 504 635 598 558 404 404 515 649
11 13 12 9 4 9 7 6 5 2 1 1 0 0 0 0 0 0 0 0 0 0 0 0 0 0 0 0 0 0 0 0 0 114 385 410 487 536 811 737 784 747 507 490 563 891 1018
9 9 10 6 3 10 9 6 4 2 1 1 0 0 0 0 0 0 0 0 0 0 0 0 0 0 0 0 0 0 0 0 0 0 436 329 172 755 939 762 711 578 535 544 624 604 637
6 5 8 8 9 3 5 2 2 0 0 0 0 0 0 0 0 0 0 0 0 0 0 0 0 0 0 0 0 0 0 0 0 0 20 77 106 959 1085 876 574 566 568 529 541 585 648
12 13 8 8 6 6 3 1 0 0 0 0 0 0 0 0 0 1 0 0 0 0 0 0 0 0 0 0 0 0 0 0 0 0 0 0 193 964 1009 750 554 500 545 536 572 468 637
10 11 11 4 7 4 5 6 1 0 0 0 0 0 0 1 1 0 0 0 0 0 0 0 0 0 0 0 0 0 0 0 0 0 40 87 521 900 829 683 623 587 490 522 627 717 629
12 2 4 3 3 5 4 8 1 0 0 0 0 0 0 0 0 0 0 0 0 0 0 0 0 0 0 0 0 0 0 0 0 57 391 212 530 773 704 507 443 337 550 624 749 848 923
0 8 18 7 4 5 11 8 4 0 0 0 0 0 0 1 0 0 0 0 0 0 0 0 0 0 0 0 0 0 0 0 0 0 192 272 517 467 340 227 159 255 572 808 790 736 877
0 0 3 10 27 13 14 10 6 3 0 0 0 0 0 0 0 0 0 0 0 0 0 0 0 0 0 0 0 0 0 0 0 0 69 327 410 211 259 327 312 211 196 80 44 61 723
14 0 0 4 26 9 14 12 8 4 0 0 0 0 1 1 0 0 0 0 0 0 0 0 0 0 0 0 0 0 0 0 0 0 8 162 230 118 219 344 227 319 0 0 3 261 633
11 19 0 0 14 24 19 10 6 0 0 0 0 0 1 0 0 0 0 0 0 0 0 0 0 0 0 0 0 0 0 0 0 0 0 120 270 356 396 426 46 85 0 65 543 443 305
4 2 16 11 0 0 7 0 0 0 0 0 0 1 1 0 0 0 0 0 0 0 0 0 0 0 0 0 0 0 0 0 0 0 0 22 3 138 431 47 0 0 41 229 657 625 420
12 17 10 2 1 15 9 0 0 0 0 0 0 1 2 0 0 0 0 0 0 0 0 0 0 0 0 0 0 0 0 0 0 0 0 0 2 2 0 54 8 57 261 236 520 616 607
8 20 5 1 9 22 21 8 8 5 1 0 0 0 0 0 0 0 0 0 0 0 0 0 0 0 0 0 0 0 0 0 0 0 0 0 0 3 6 33 212 342 422 253 298 535 507
22 34 16 25 13 10 19 18 9 6 1 1 0 0 0 0 0 0 0 0 0 0 0 0 0 0 0 0 0 0 0 0 0 0 0 0 0 0 0 0 33 105 251 225 128 308 185
10 17 18 40 29 11 20 23 15 5 3 0 0 0 0 0 0 0 0 0 0 0 0 0 0 0 0 0 0 0 0 0 0 0 0 0 0 0 0 0 0 21 194 192 157 126 275
14 21 23 37 16 3 10 24 20 0 1 0 0 0 0 0 0 0 0 0 0 0 0 0 0 0 0 0 0 0 0 0 0 0 0 0 0 0 0 0 0 1 87 117 172 204 286
32 28 35 32 0 0 15 27 15 0 0 0 0 0 0 0 0 0 0 0 0 0 0 0 0 0 0 0 0 0 0 0 0 0 0 0 0 0 0 0 0 0 20 161 218 212 186
26 46 39 32 0 4 28 31 3 0 0 0 0 0 0 0 0 0 0 0 0 0 0 0 0 0 0 0 0 0 0 0 0 0 0 0 0 0 0 0 0 0 0 61 71 103 230
17 23 32 16 0 10 30 25 0 0 0 0 0 0 0 0 0 0 0 0 0 0 0 0 0 0 0 0 0 0 0 0 0 0 0 0 0 0 0 0 0 0 0 0 40 102 108
21 26 34 13 20 21 35 26 2 0 0 0 0 0 0 0 0 0 0 0 0 0 0 0 0 0 0 0 0 0 0 0 0 0 0 0 0 0 0 0 0 0 0 0 0 2 70
24 24 23 31 18 14 30 39 6 0 0 0 0 0 0 0 0 0 0 0 0 0 0 0 0 0 0 0 0 0 0 0 0 0 0 0 0 0 0 0 0 0 0 0 0 0 3
24 25 21 31 31 14 18 47 20 0 0 0 0 0 0 0 0 0 0 0 0 0 0 0 0 0 0 0 0 0 0 0 0 0 0 0 0 0 0 0 0 0 0 0 0 0 15
18 22 24 23 22 20 17 35 30 2 0 2 0 0 0 0 0 0 0 0 0 0 0 0 0 0 0 0 0 0 0 0 0 0 0 0 0 0 0 0 0 22 27 2 0 88 141
20 17 16 18 20 19 10 23 10 16 0 10 0 0 1 0 0 0 0 0 0 0 0 0 0 0 0 0 0 0 0 0 0 0 0 0 0 0 0 0 161 186 291 261 226 371 438
23 13 10 18 19 19 20 22 11 10 5 16 0 0 0 0 5 0 0 0 0 0 0 0 0 0 0 0 0 0 0 0 0 0 0 0 0 7 18 24 29 76 342 123 460 623 638
13 9 8 17 18 21 23 20 12 8 19 16 3 0 0 0 0 0 5 6 0 0 0 0 0 0 0 0 0 0 0 0 50 25 2 1 18 36 102 97 386 304 37 114 668 503 911
13 12 14 9 14 24 29 21 12 4 15 8 10 0 2 7 0 0 0 0 0 0 0 0 0 0 0 0 0 0 0 2 53 289 126 121 152 106 165 186 269 4 54 523 317 740 931
11 5 6 7 9 16 23 11 5 14 9 0 19 0 0 1 0 0 0 0 0 0 0 0 0 0 0 0 0 0 0 58 58 245 54 287 318 454 262 340 3 0 70 80 267 314 234